www.pogodaiklimat.ru

Погода и климат >> Архив погоды >> Япония >> Тоттори


ПОГОДА в Тоттори

  • Прогноз погоды в Тоттори
  • Монитор погоды в Тоттори

АРХИВ ПОГОДЫ в Тоттори

Время (UTC), дата Ветер
(напр.,м/с)
 
Видим.   Явления Облачность Т
(С)
Тd
(С)
f
(%)
Тe
(С)
Тes
(С)
Комфортность P
(гПа)
Po
(гПа)
Тmin
(С)
Tmax
(С)
R
(мм)
R24
(мм)
S
(см)
10 10.08 ЮЗ 3 н/о н/о +29.7 +25.5 78 +44 +44 опасность
перегрева
1006.9 1005.1
11 10.08 З 2 н/о н/о +29.6 +25.4 78 +43 +43 опасность
перегрева
1007.6 1005.8
12 10.08 Ю 2 30 км ясно +28.6 +25.0 81 +41 +41 опасность
перегрева
1008.4 1006.6 +36.3
13 10.08 В 2 н/о н/о +28.0 +24.8 83 +40 +40 очень
душно
1008.5 1006.7
14 10.08 В 2 н/о н/о +27.3 +24.8 86 +39 +39 очень
душно
1008.3 1006.5
15 10.08 ЮВ 2 н/о н/о +27.0 +24.5 86 +38 +38 очень
душно
1008.3 1006.5
16 10.08 В 2 н/о н/о +26.4 +24.4 89 +37 +37 очень
душно
1008.1 1006.3
17 10.08 ЮВ 3 н/о н/о +26.0 +24.4 91 +36 +36 очень
душно
1007.6 1005.8
18 10.08 В 2 30 км ясно +25.8 +24.0 90 +36 +36 очень
душно
1007.1 1005.3
19 10.08 В 2 н/о н/о +25.4 +23.8 91 +35 +35 очень
душно
1007.1 1005.3
20 10.08 ЮВ 3 н/о н/о +25.1 +23.7 92 +34 +34 очень
душно
1007.1 1005.3
21 10.08 В 2 30 км 4/0
[Ci fib]
+24.8 +23.6 93 +34 +34 очень
душно
1007.3 1005.5
22 10.08 В 3 н/о н/о +26.3 +22.8 81 +35 +35 очень
душно
1007.3 1005.5
23 10.08 В 1 н/о н/о +28.9 +23.3 72 +39 +39 очень
душно
1007.1 1005.3
00 11.08 В 1 30 км 9/0
[Ci sp]
+31.2 +22.5 60 +41 +51 опасность
перегрева
1006.7 1004.9 +24.7
01 11.08 СВ 3 н/о н/о +33.7 +23.7 56 +45 +45 опасность
перегрева
1006.2 1004.4
02 11.08 СВ 3 н/о н/о +35.3 +24.3 53 +47 +47 опасность
перегрева
1005.7 1004.0
03 11.08 С 3 30 км 9/1
[Cu med, cong Ci sp]
+35.2 +22.9 49 +45 +57 опасность
перегрева
1005.3 1003.6
04 11.08 С 3 н/о н/о +36.3 +23.9 49 +48 +48 опасность
перегрева
1004.5 1002.8
05 11.08 СЗ 3 н/о н/о +36.7 +23.2 46 +47 +47 опасность
перегрева
1004.1 1002.4
06 11.08 З 4 25 км 9/1
[Cu med, cong Ci sp]
+34.5 +24.4 56 +47 +53 опасность
перегрева
1004.0 1002.2
07 11.08 З 4 н/о н/о +34.6 +25.7 60 +50 +50 опасность
перегрева
1004.2 1002.4
08 11.08 З 4 н/о н/о +33.7 +25.4 62 +48 +48 опасность
перегрева
1004.3 1002.5
09 11.08 З 3 25 км 8/1
[Cu med, cong Ci sp]
+32.4 +25.7 68 +48 +48 опасность
перегрева
1004.6 1002.8
10 11.08 З 2 н/о н/о +31.3 +25.9 73 +47 +47 опасность
перегрева
1005.2 1003.4
11 11.08 ЮЗ 1 н/о н/о +30.4 +25.7 76 +45 +45 опасность
перегрева
1006.1 1004.3
12 11.08 ЮВ 2 20 км 8/0
[Ci fib]
+29.4 +25.6 80 +43 +43 опасность
перегрева
1006.6 1004.8 +37.3
13 11.08 ЮВ 3 н/о н/о +28.7 +24.9 80 +41 +41 опасность
перегрева
1006.5 1004.7
14 11.08 ЮВ 2 н/о н/о +28.2 +24.0 78 +39 +39 очень
душно
1006.5 1004.7
15 11.08 ЮВ 3 н/о н/о +27.9 +23.3 76 +38 +38 очень
душно
1006.1 1004.3
16 11.08 В 3 н/о н/о +26.7 +23.4 82 +36 +36 очень
душно
1005.6 1003.8
17 11.08 ЮВ 2 н/о н/о +26.6 +23.3 82 +36 +36 очень
душно
1004.9 1003.1
18 11.08 В 2 20 км 4/0
[Ci fib]
+26.0 +23.1 84 +35 +35 очень
душно
1005.2 1003.4
19 11.08 В 4 н/о н/о +25.5 +23.0 86 +34 +34 очень
душно
1005.0 1003.2
20 11.08 В 4 н/о н/о +25.4 +22.9 86 +34 +34 очень
душно
1004.9 1003.1
21 11.08 В 3 20 км 9/0
[Ci fib]
+25.7 +22.8 84 +34 +34 очень
душно
1004.9 1003.1
22 11.08 В 2 н/о н/о +28.3 +23.2 74 +38 +38 очень
душно
1005.2 1003.4
23 11.08 Ю 2 н/о н/о +30.8 +22.7 62 +40 +40 очень
душно
1005.4 1003.6
00 12.08 Ю 3 30 км 9/1
[Cu med, cong Cs]
+31.9 +22.3 57 +41 +48 опасность
перегрева
1005.3 1003.5 +25.2
01 12.08 Ю 2 н/о н/о +32.9 +22.1 53 +42 +42 опасность
перегрева
1005.1 1003.3
02 12.08 З 2 н/о н/о +34.1 +22.2 50 +43 +43 опасность
перегрева
1004.7 1002.9
03 12.08 ЮВ 3 35 км 9/3
[Cu med, cong Ci sp]
+35.6 +22.2 46 +44 +54 опасность
перегрева
1003.9 1002.2
04 12.08 З 2 н/о н/о +36.2 +22.4 45 +45 +45 опасность
перегрева
1003.7 1002.0
05 12.08 СЗ 3 н/о н/о +37.0 +23.1 45 +47 +47 опасность
перегрева
1003.7 1002.0
06 12.08 С 3 35 км 9/4
[Cu med, cong Ci sp]
+35.9 +24.2 51 +48 +52 опасность
перегрева
1003.5 1001.8
07 12.08 С 3 н/о н/о +36.2 +23.4 48 +47 +47 опасность
перегрева
1003.3 1001.6
08 12.08 С 2 н/о н/о +34.9 +22.9 50 +45 +45 опасность
перегрева
1003.4 1001.7
09 12.08 С 2 30 км 9/1
[Cu med, cong Ci sp]
+34.7 +23.4 52 +45 +46 опасность
перегрева
1003.2 1001.5
10 12.08 З 2 н/о н/о +32.1 +25.7 69 +47 +47 опасность
перегрева
1003.8 1002.0
11 12.08 Ю 1 н/о н/о +31.6 +25.5 70 +46 +46 опасность
перегрева
1004.2 1002.4
12 12.08 ЮВ 2 30 км 8/1
[Cu med, cong Ci sp]
+30.3 +25.6 76 +45 +45 опасность
перегрева
1004.5 1002.7 +38.2
13 12.08 ЮВ 2 н/о н/о +30.1 +25.4 76 +44 +44 опасность
перегрева
1004.3 1002.5
14 12.08 В 1 н/о н/о +29.2 +25.2 79 +42 +42 опасность
перегрева
1004.0 1002.2
15 12.08 ЮВ 1 н/о н/о +28.3 +24.9 82 +41 +41 опасность
перегрева
1003.8 1002.0
16 12.08 В 2 н/о н/о +27.4 +23.9 81 +38 +38 очень
душно
1003.3 1001.5
17 12.08 ЮВ 1 н/о н/о +27.1 +23.6 81 +37 +37 очень
душно
1003.3 1001.5
18 12.08 ЮВ 2 30 км 1/0
[Ci sp]
+26.6 +22.7 79 +35 +35 очень
душно
1003.2 1001.4
19 12.08 ЮВ 2 н/о н/о +26.0 +22.3 80 +34 +34 очень
душно
1003.2 1001.4
20 12.08 В 2 н/о н/о +25.5 +22.4 83 +33 +33 очень
душно
1003.4 1001.6
21 12.08 ЮВ 2 30 км 9/1
[Cu hum Ci sp]
+25.7 +22.4 82 +34 +34 очень
душно
1003.9 1002.1
22 12.08 ЮВ 1 н/о н/о +27.3 +22.5 75 +36 +36 очень
душно
1004.1 1002.3
23 12.08 Ю 1 н/о н/о +29.2 +22.9 69 +39 +39 очень
душно
1004.0 1002.2
00 13.08 ЮЗ 1 30 км 9/3
[Cu med, cong Ci sp]
+32.6 +22.4 55 +42 +49 опасность
перегрева
1003.7 1001.9 +25.2
01 13.08 ЮВ 4 н/о н/о +35.5 +22.8 48 +45 +45 опасность
перегрева
1003.2 1001.5
02 13.08 Ю 3 н/о н/о +35.8 +22.4 46 +45 +45 опасность
перегрева
1002.5 1000.8
03 13.08 ЮВ 3 30 км 4/4
[Cu med, cong Ci fib]
+37.2 +21.3 40 +44 +54 опасность
перегрева
1002.2 1000.5
04 13.08 СВ 4 н/о н/о +37.4 +24.2 47 +49 +49 опасность
перегрева
1001.6 999.9
05 13.08 СВ 6 н/о н/о +35.6 +24.5 53 +48 +48 опасность
перегрева
1001.4 999.7
06 13.08 СВ 6 30 км 6/6
[Cu med, cong Ci fib]
+35.4 +25.3 56 +49 +51 опасность
перегрева
1001.1 999.4
07 13.08 СВ 4 н/о н/о +34.7 +25.2 58 +49 +49 опасность
перегрева
1001.1 999.4
08 13.08 СВ 5 н/о н/о +34.2 +25.0 59 +48 +48 опасность
перегрева
1001.0 999.3
09 13.08 СВ 3 30 км 4/1
[Cu hum Ac lent Cc]
+32.6 +25.7 67 +48 +48 опасность
перегрева
1001.1 999.3
10 13.08 СВ 3 н/о н/о +31.2 +25.6 72 +46 +46 опасность
перегрева
1001.8 1000.0
11 13.08 В 3 н/о н/о +30.9 +25.7 74 +46 +46 опасность
перегрева
1002.7 1000.9
12 13.08 В 5 25 км 3/1
[Cu hum Ac lent Ci sp]
+31.1 +25.2 71 +45 +45 опасность
перегрева
1002.8 1001.0 +38.3
13 13.08 В 4 н/о н/о +30.4 +24.8 72 +43 +43 опасность
перегрева
1002.7 1000.9
14 13.08 В 2 н/о н/о +29.7 +24.1 72 +41 +41 опасность
перегрева
1002.3 1000.5
15 13.08 ЮЗ 1 н/о н/о +28.9 +25.5 82 +43 +43 опасность
перегрева
1001.8 1000.0
16 13.08 В 1 н/о н/о +28.1 +24.7 82 +40 +40 очень
душно
1001.3 999.5
17 13.08 В 2 н/о н/о +27.4 +23.9 81 +38 +38 очень
душно
1000.8 999.0
18 13.08 В 1 25 км 8/1
[Sc Ac lent Ci sp]
+27.2 +23.7 81 +37 +37 очень
душно
1000.8 999.0
19 13.08 В 1 н/о н/о +27.0 +24.1 84 +37 +37 очень
душно
1000.5 998.7
20 13.08 В 1 н/о н/о +26.5 +23.4 83 +36 +36 очень
душно
1000.4 998.6
21 13.08 Ю 1 20 км 9/3
[Cu med, cong Ac trans Ci sp]
+26.9 +24.0 84 +37 +37 очень
душно
1000.5 998.7
22 13.08 З 1 н/о н/о +28.6 +24.0 76 +40 +40 очень
душно
1000.5 998.7
23 13.08 В 1 н/о н/о +31.2 +24.3 67 +43 +43 опасность
перегрева
1000.4 998.6
00 14.08 СВ 5 20 км в посл. час ливневой дождь 9/4
[Cu med, cong Ac As Ci sp]
+31.4 +23.5 63 +42 +44 опасность
перегрева
1000.3 998.5 +26.5 0.0
01 14.08 СВ 4 н/о н/о +33.3 +23.9 58 +45 +45 опасность
перегрева
999.6 997.9
02 14.08 В 5 н/о н/о +33.9 +23.3 54 +44 +44 опасность
перегрева
998.9 997.2
03 14.08 В 5 30 км 8/4
[Cu med, cong Ac trans Ci fib]
+36.5 +22.6 45 +46 +50 опасность
перегрева
997.5 995.8
04 14.08 В 7 н/о н/о +37.4 +21.9 41 +45 +45 опасность
перегрева
997.1 995.4
05 14.08 В 7 н/о н/о +36.4 +21.8 43 +44 +44 опасность
перегрева
996.7 995.0
06 14.08 ЮВ 6 20 км слаб. ливневой дождь 9/5
[Cu med, cong Ac As]
+33.7 +22.8 53 +44 +44 опасность
перегрева
996.5 994.8 0.0
07 14.08 В 4 н/о н/о +32.7 +23.1 57 +43 +43 опасность
перегрева
996.6 994.9
08 14.08 В 6 н/о н/о +33.4 +23.1 55 +44 +44 опасность
перегрева
996.3 994.6
09 14.08 В 6 20 км {ливн. осадки} 9/9
[Cu med, cong]
+32.8 +22.9 56 +43 +43 опасность
перегрева
995.9 994.2
10 14.08 В 5 н/о н/о +33.0 +22.8 55 +43 +43 опасность
перегрева
995.7 994.0
11 14.08 ЮВ 3 н/о н/о +32.5 +23.2 58 +43 +43 опасность
перегрева
995.7 994.0
12 14.08 Ю 2 20 км в посл. час ливневой дождь 9/9
[Cu med, cong]
+31.6 +23.7 63 +43 +43 опасность
перегрева
995.8 994.0 +37.8 0.0
13 14.08 Ю 2 н/о н/о +31.5 +23.3 62 +42 +42 опасность
перегрева
995.4 993.6
14 14.08 СВ 1 н/о н/о +31.3 +23.9 65 +43 +43 опасность
перегрева
994.7 992.9
15 14.08 В 2 н/о н/о +31.8 +23.1 60 +42 +42 опасность
перегрева
993.8 992.1
16 14.08 СВ 2 н/о н/о +31.3 +22.9 61 +41 +41 опасность
перегрева
992.6 990.9
17 14.08 ЮВ 3 н/о н/о +31.6 +22.0 57 +40 +40 очень
душно
992.1 990.4
18 14.08 В 4 20 км 6/6
[Cu med, cong]
+31.9 +21.7 55 +40 +40 очень
душно
991.3 989.6
20 14.08 В 5 н/о н/о +31.7 +22.1 57 +41 +41 опасность
перегрева
990.6 988.9
21 14.08 В 7 20 км в посл. час ливневой дождь 10/10
[Cu med, cong]
+31.6 +22.6 59 +41 +41 опасность
перегрева
990.1 988.4
22 14.08 ЮВ 4 н/о н/о +31.2 +23.1 62 +41 +41 опасность
перегрева
990.2 988.5
23 14.08 В 6 н/о н/о +30.1 +23.5 68 +41 +41 опасность
перегрева
989.4 987.6
00 15.08 В 6 15 км слаб. ливневой дождь 10/10
[Cu med, cong]
+29.9 +23.8 70 +41 +41 опасность
перегрева
989.0 987.2 +29.8 0.0
01 15.08 В 6 н/о н/о +29.5 +24.4 74 +41 +41 опасность
перегрева
988.4 986.6
02 15.08 В 6 н/о н/о +29.4 +25.4 79 +43 +43 опасность
перегрева
986.8 985.1
03 15.08 ЮВ 7 30 км в посл. час ливневой дождь 10/10
[Cu med, cong]
+32.7 +22.8 56 +43 +43 опасность
перегрева
985.3 983.6
04 15.08 ЮВ 5 н/о н/о +32.3 +23.3 59 +43 +43 опасность
перегрева
984.6 982.9
05 15.08 ЮВ 6 н/о н/о +31.8 +23.6 62 +43 +43 опасность
перегрева
984.1 982.4
06 15.08 ЮВ 4 25 км слаб. ливневой дождь 10/10
[Cu med, cong]
+30.9 +24.1 67 +43 +43 опасность
перегрева
982.6 980.9 0.0
07 15.08 В 2 н/о н/о +30.5 +24.4 70 +43 +43 опасность
перегрева
981.4 979.7
08 15.08 В 3 н/о н/о +30.0 +24.6 73 +43 +43 опасность
перегрева
980.6 978.9
09 15.08 ЮВ 4 20 км в посл. час ливневой дождь 9/9
[Cu med, cong]
+29.6 +24.7 75 +42 +42 опасность
перегрева
979.9 978.2
10 15.08 Ю 2 н/о н/о +29.3 +24.9 77 +42 +42 опасность
перегрева
980.1 978.4
11 15.08 ЮВ 2 н/о н/о +29.7 +24.8 75 +42 +42 опасность
перегрева
980.7 979.0
12 15.08 Ю 5 20 км в посл. час ливневой дождь 9/9
[Cu med, cong]
+29.8 +24.9 75 +43 +43 опасность
перегрева
982.2 980.5 +33.2 0.0
13 15.08 Ю 4 н/о н/о +29.5 +25.0 77 +43 +43 опасность
перегрева
983.1 981.4
14 15.08 ЮВ 5 н/о н/о +29.2 +24.8 77 +42 +42 опасность
перегрева
983.7 982.0
15 15.08 Ю 4 н/о н/о +29.3 +24.6 76 +42 +42 опасность
перегрева
984.1 982.4
16 15.08 ЮВ 4 н/о н/о +26.6 +25.7 95 +39 +39 очень
душно
985.4 983.6
17 15.08 Ю 4 н/о н/о +26.9 +25.3 91 +39 +39 очень
душно
986.6 984.8
18 15.08 Ю 5 10 км слаб. ливневой дождь 10/10
[Cu med, cong]
+27.4 +25.1 87 +39 +39 очень
душно
987.8 986.0 18
19 15.08 Ю 3 н/о н/о +27.0 +25.2 90 +39 +39 очень
душно
989.0 987.2
20 15.08 Ю 4 н/о н/о +28.0 +25.0 84 +40 +40 очень
душно
990.2 988.4
21 15.08 Ю 3 30 км {ливн. осадки} 9/9
[Cu med, cong]
+28.0 +25.0 84 +40 +40 очень
душно
991.4 989.6
22 15.08 Ю 5 н/о н/о +28.4 +24.4 79 +40 +40 очень
душно
992.7 990.9
23 15.08 Ю 5 н/о н/о +29.3 +24.4 75 +41 +41 опасность
перегрева
993.9 992.1
00 16.08 Ю 5 20 км {ливн. осадки} 9/9
[Cu med, cong]
+31.1 +24.0 66 +43 +43 опасность
перегрева
994.4 992.6 +26.4 20
01 16.08 Ю 6 н/о н/о +29.7 +23.4 69 +40 +40 очень
душно
995.2 993.4
02 16.08 Ю 5 н/о н/о +30.1 +23.3 67 +41 +41 опасность
перегрева
995.6 993.8
03 16.08 Ю 6 25 км 10/9
[Cu med, cong Ac As]
+30.2 +23.4 67 +41 +41 опасность
перегрева
995.8 994.0
04 16.08 З 2 н/о н/о +30.7 +24.1 68 +43 +43 опасность
перегрева
996.4 994.6
05 16.08 Ю 3 н/о н/о +31.3 +23.7 64 +42 +42 опасность
перегрева
996.5 994.7
06 16.08 Ю 4 30 км 9/1
[Cu med, cong Ac As Ci sp]
+32.9 +23.3 57 +43 +47 опасность
перегрева
996.2 994.5
07 16.08 СЗ 3 н/о н/о +31.4 +22.7 60 +41 +41 опасность
перегрева
996.7 994.9
08 16.08 С 3 н/о н/о +31.1 +23.7 65 +42 +42 опасность
перегрева
997.5 995.7
09 16.08 СЗ 4 30 км 8/5
[Cu Sc Ac trans Ci sp]
+30.2 +22.6 64 +40 +40 очень
душно
998.3 996.5
11 16.08 В 1 н/о н/о +27.8 +23.4 77 +38 +38 очень
душно
999.3 997.5
12 16.08 ЮВ 4 30 км 9/9
[Cu med, cong]
+26.7 +24.0 85 +37 +37 очень
душно
999.8 998.0 +34.1
13 16.08 В 1 н/о н/о +27.0 +23.9 83 +37 +37 очень
душно
1000.0 998.2
15 16.08 В 1 н/о н/о +26.8 +23.7 83 +37 +37 очень
душно
1000.7 998.9
16 16.08 В 1 н/о н/о +27.0 +23.1 79 +36 +36 очень
душно
1000.7 998.9
17 16.08 В 2 н/о н/о +27.0 +22.8 78 +36 +36 очень
душно
1001.0 999.2
18 16.08 Ю 2 30 км 6/6
[Cu med, cong]
+26.4 +22.5 79 +35 +35 очень
душно
1001.3 999.5
19 16.08 ЮВ 2 н/о н/о +25.6 +22.9 85 +34 +34 очень
душно
1001.6 999.8
20 16.08 СВ 1 н/о н/о +25.2 +22.5 85 +33 +33 очень
душно
1002.3 1000.5
21 16.08 В 1 30 км 3/3
[Cu med, cong]
+25.2 +22.7 86 +33 +33 очень
душно
1002.9 1001.1
22 16.08 В 2 н/о н/о +27.0 +22.6 77 +36 +36 очень
душно
1003.3 1001.5
23 16.08 ЮВ 2 н/о н/о +29.2 +22.4 67 +38 +38 очень
душно
1003.5 1001.7
00 17.08 З 2 30 км 4/3
[Cu med, cong Ac trans Ci sp]
+30.9 +19.9 52 +37 +44 очень
душно
1003.7 1001.9 +24.8
01 17.08 СЗ 2 н/о н/о +32.5 +21.7 53 +41 +41 опасность
перегрева
1003.7 1001.9
02 17.08 С 5 н/о н/о +32.2 +21.1 52 +40 +40 очень
душно
1003.9 1002.1
03 17.08 СЗ 5 30 км 3/3
[Cu med, cong]
+31.3 +21.5 56 +39 +47 очень
душно
1003.8 1002.0
04 17.08 СЗ 5 н/о н/о +32.0 +23.0 59 +42 +42 опасность
перегрева
1003.7 1001.9
05 17.08 СЗ 5 н/о н/о +30.9 +22.5 61 +40 +40 очень
душно
1003.8 1002.0
06 17.08 СЗ 4 30 км 3/3
[Cu med, cong]
+30.6 +22.5 62 +40 +45 очень
душно
1003.5 1001.7
07 17.08 С 3 н/о н/о +31.0 +22.1 59 +40 +40 очень
душно
1003.5 1001.7
08 17.08 СЗ 4 н/о н/о +30.5 +22.1 61 +39 +39 очень
душно
1003.5 1001.7
09 17.08 С 2 25 км 1/1
[Cu med, cong]
+28.6 +22.1 68 +37 +38 очень
душно
1003.5 1001.7
10 17.08 С 2 н/о н/о +28.4 +22.4 70 +37 +37 очень
душно
1004.0 1002.2

 

Местоположение метеостанции Тоттори (Япония): широта 35.48 долгота 134.20 высота над уровнем моря 15 м.

В архиве по умолчанию представлена погода в Тоттори за последнюю неделю. Архивные данные за месяц целиком и за предыдущие месяцы, начиная с января 2011 года, Вы можете получить, выбрав интересующий диапазон дат из раскрывающегося списка и нажав кнопку "Ввод!".


*Определитесь, кто Вы:
робот инопланетянин человек

Внимание! Время в таблицах - всемирное. Для получения местного времени необходимо прибавить поправку, которая равна 9 ч.

Смотрите также архив погоды в соседних городах и на ближайших метеорологических станциях:

Погода в Цуяме (Япония) (49 км)
Погода в Тоёоке (Япония) (56 км)
Погода в Йонаго (Япония) (79 км)
Погода в Химедзи (Япония) (84 км)
Погода в Сакаи (Япония) (88 км)
Погода в Окаяме (Япония) (94 км)
Погода в Майдзуру (Япония) (101 км)
Погода в Мацуэ (Япония) (103 км)
Погода в Сайго (Япония) (112 км)
Погода в Кобе (Япония) (126 км)

Пояснения к столбцам:

Ветер - указаны скорость ветра в м/с - средняя за 10 мин, порывы в срок и между сроками (в фигурных скобках) и направление, откуда дует ветер: С - северный, СВ - северо-восточный, В - восточный, ЮВ - юго-восточный, Ю - южный, ЮЗ - юго-западный, З - западный, СЗ - северо-западный.
Видимость - горизонтальная дальность видимости в метрах или километрах. При видимости от 1 до 10 км при отсутствии осадков обычно наблюдается дымка, при ухудшении видимости до 1 км и менее - туман. В сухую погоду видимость может ухудшаться дымом, пылью или мглою.
Явления - указаны атмосферные явления, наблюдавшиеся в срок или в последний час перед сроком; фигурными скобками обозначены явления, наблюдавшиеся между сроками (за 1-3 часа до срока); квадратными скобками обозначены град или гололедные отложения с указанием их диаметра в мм.
Облачность - указаны через наклонную черту общая и нижняя облачность в баллах и высота нижней границы облаков в метрах; квадратными скобками обозначены формы облаков: Ci - перистые, Cs - перисто-слоистые, Cc - перисто-кучевые, Ac - высококучевые, As - высокослоистые, Sc - слоисто-кучевые, Ns - слоисто-дождевые, Cu - кучевые, Cb - кучево-дождевые. Подробнее классификацию облаков см. в Атласе облаков (PDF).
T - Температура воздуха - температура, измеренная на высоте 2 м над землей.
Td - Температура точки росы - температура, при понижении до которой содержащийся в воздухе водяной пар достигнет насыщения.
f - Относительная влажность воздуха - влажноcть воздуха, измеренная на высоте 2 м над землей.
Te - Эффективная температура - температура, которую ощущает одетый по сезону человек в тени. Характеристика душности погоды. При расчете учитывается влияние влажности воздуха и скорости ветра на теплоощущения человека.
Tes - Эффективная температура на солнце - температура, которую ощущает человек, с поправкой на солнечный нагрев. Характеристика знойности погоды. Зависит от высоты солнца над горизонтом, облачности и скорости ветра. Ночью, в пасмурную погоду, а также при ветре 12 м/с и более поправка равна нулю.
P - Атмосферное давление - приведенное к уровню моря атмосферное давление.
Po - Атмосферное давление - измеренное на уровне метеостанции атмосферное давление.
Tmin - Минимальная температура - минимум температуры воздуха на высоте 2 м над землей.
Tmax - Максимальная температура - максимум температуры воздуха на высоте 2 м над землей.
R - Количество осадков - Количество выпавших осадков за период времени, мм. При наведении курсора мыши на число - период времени, за который выпало указанное количество осадков.
R24 - Количество осадков - Количество выпавших осадков за 24 часа, мм.
S - Снежный покров - Высота снежного покрова, см. При наведении курсора мыши на число - состояние снежного покрова и степень покрытия местности в баллах.